CW2969 Weather Reports


time (UTC)temp
C
wind
direction
speed
KPH
gust
KPH
rain 1hr
cm
rain 24hr
cm
rain mn
cm
humidity
%
barometer
mb
20260504033030 18 205 1.6 12.9 0.00 0.00 0.00 57 1016.6
20260504032530 18 132 3.2 12.9 0.00 0.00 0.00 57 1016.6
20260504032030 18 134 4.8 4.8 0.00 0.00 0.00 56 1016.7
20260504031530 18 109 0.0 0.0 0.00 0.00 0.00 56 1016.6
20260504031030 18 109 0.0 0.0 0.00 0.00 0.00 55 1016.6
20260504030530 18 176 0.0 3.2 0.00 0.00 0.00 55 1016.5
20260504030030 19 169 1.6 3.2 0.00 0.00 0.00 54 1016.5
20260504025529 19 169 0.0 0.0 0.00 0.00 0.00 53 1016.3
20260504025030 19 169 0.0 0.0 0.00 0.00 0.00 52 1016.2
20260504024530 19 169 0.0 0.0 0.00 0.00 0.00 52 1016.2
20260504023529 20 169 0.0 0.0 0.00 0.00 0.00 51 1016.2
20260504023029 20 169 0.0 0.0 0.00 0.00 0.00 51 1016.2
20260504022529 20 169 0.0 1.6 0.00 0.00 0.00 51 1016.1
20260504022029 20 169 0.0 1.6 0.00 0.00 0.00 50 1016.2
20260504021529 20 169 0.0 1.6 0.00 0.00 0.00 50 1016.3
20260504021029 20 169 0.0 1.6 0.00 0.00 0.00 50 1016.3
20260504020029 21 198 0.0 0.0 0.00 0.00 0.00 49 1016.3
20260504015529 21 198 0.0 0.0 0.00 0.00 0.00 48 1015.9
20260504015029 21 198 0.0 0.0 0.00 0.00 0.00 47 1015.8
20260504014528 21 198 0.0 0.0 0.00 0.00 0.00 46 1015.6
20260504014028 22 198 0.0 0.0 0.00 0.00 0.00 46 1015.6
20260504013528 22 198 0.0 0.0 0.00 0.00 0.00 46 1015.7
20260504013028 22 198 0.0 0.0 0.00 0.00 0.00 46 1015.6
20260504012528 22 198 0.0 0.0 0.00 0.00 0.00 45 1015.6
20260504011528 23 193 1.6 1.6 0.00 0.00 0.00 44 1015.6
20260504011028 23 150 0.0 1.6 0.00 0.00 0.00 44 1015.6
20260504005528 23 196 1.6 3.2 0.00 0.00 0.00 43 1015.6
20260504005028 24 173 0.0 3.2 0.00 0.00 0.00 42 1015.5
20260504004528 24 148 1.6 4.8 0.00 0.00 0.00 42 1015.5
20260504004028 24 105 1.6 4.8 0.00 0.00 0.00 41 1015.5
20260504002528 25 115 4.8 6.4 0.00 0.00 0.00 40 1015.6
20260504002027 25 141 4.8 11.3 0.00 0.00 0.00 40 1015.8
20260504001527 25 186 3.2 11.3 0.00 0.00 0.00 39 1015.9
20260504001027 25 205 3.2 6.4 0.00 0.00 0.00 39 1015.9
20260504000527 25 250 3.2 16.1 0.00 0.00 0.00 39 1016.0
20260504000027 25 132 12.9 16.1 0.00 0.00 0.00 39 1016.0
20260503235527 25 197 1.6 8.0 0.00 0.00 0.00 39 1016.1
20260503235027 25 185 1.6 8.0 0.00 0.00 0.00 39 1016.1
20260503234527 26 204 3.2 8.0 0.00 0.00 0.00 38 1016.2
20260503234026 26 128 6.4 16.1 0.00 0.00 0.00 39 1016.1
20260503233526 25 101 16.1 16.1 0.00 0.00 0.00 39 1016.1
20260503232526 25 144 3.2 9.7 0.00 0.00 0.00 39 1016.2
20260503232026 26 205 1.6 9.7 0.00 0.00 0.00 39 1016.3
20260503231526 26 150 1.6 11.3 0.00 0.00 0.00 38 1016.3
20260503230526 26 186 4.8 6.4 0.00 0.00 0.00 38 1016.0
20260503230026 26 163 3.2 6.4 0.00 0.00 0.00 38 1016.1
20260503225526 26 137 6.4 6.4 0.00 0.00 0.00 38 1016.2
20260503225026 26 178 3.2 6.4 0.00 0.00 0.00 37 1016.2
20260503224526 26 244 3.2 9.7 0.00 0.00 0.00 37 1016.3
20260503224026 26 121 8.0 9.7 0.00 0.00 0.00 37 1016.4
20260503223526 27 145 4.8 8.0 0.00 0.00 0.00 37 1016.5
20260503223026 27 318 1.6 6.4 0.00 0.00 0.00 38 1016.7
20260503222526 27 227 3.2 4.8 0.00 0.00 0.00 37 1016.7
20260503222026 27 155 3.2 12.9 0.00 0.00 0.00 37 1016.7
20260503221526 26 166 4.8 17.7 0.00 0.00 0.00 37 1016.7
20260503221026 26 140 8.0 17.7 0.00 0.00 0.00 37 1016.9
20260503220526 26 132 8.0 12.9 0.00 0.00 0.00 37 1016.9
20260503215526 26 134 6.4 12.9 0.00 0.00 0.00 36 1017.1
20260503215026 26 112 4.8 8.0 0.00 0.00 0.00 37 1017.1
20260503214525 26 217 1.6 14.5 0.00 0.00 0.00 37 1017.1
20260503214026 27 135 12.9 14.5 0.00 0.00 0.00 37 1017.2
20260503213525 27 304 1.6 8.0 0.00 0.00 0.00 37 1017.3
20260503213025 27 109 6.4 16.1 0.00 0.00 0.00 37 1017.4
20260503212525 27 119 3.2 16.1 0.00 0.00 0.00 37 1017.5
20260503212025 27 192 4.8 12.9 0.00 0.00 0.00 37 1017.6
20260503211525 26 240 1.6 6.4 0.00 0.00 0.00 38 1017.8
20260503211025 26 190 3.2 14.5 0.00 0.00 0.00 37 1017.8
20260503210525 26 109 3.2 17.7 0.00 0.00 0.00 37 1017.9
20260503205526 26 195 3.2 16.1 0.00 0.00 0.00 37 1018.2
20260503205025 26 101 11.3 12.9 0.00 0.00 0.00 38 1018.3
20260503204525 26 134 12.9 12.9 0.00 0.00 0.00 37 1018.2
20260503204025 26 158 3.2 14.5 0.00 0.00 0.00 38 1018.4
20260503203525 26 207 3.2 14.5 0.00 0.00 0.00 38 1018.5
20260503203025 26 331 3.2 17.7 0.00 0.00 0.00 38 1018.7
20260503202525 26 140 4.8 17.7 0.00 0.00 0.00 39 1018.7
20260503202025 27 165 8.0 9.7 0.00 0.00 0.00 39 1018.7
20260503201025 26 248 6.4 12.9 0.00 0.00 0.00 39 1018.7
20260503200525 26 295 3.2 17.7 0.00 0.00 0.00 39 1018.9
20260503200025 26 188 4.8 17.7 0.00 0.00 0.00 39 1019.1
20260503194525 26 207 3.2 14.5 0.00 0.00 0.00 39 1019.2
20260503194024 26 202 1.6 17.7 0.00 0.00 0.00 41 1019.3
20260503193024 26 136 6.4 11.3 0.00 0.00 0.00 41 1019.4
20260503192524 26 115 3.2 9.7 0.00 0.00 0.00 40 1019.4
20260503192025 26 117 3.2 9.7 0.00 0.00 0.00 41 1019.5
20260503191524 26 290 0.0 20.9 0.00 0.00 0.00 42 1019.5
20260503191024 26 165 16.1 20.9 0.00 0.00 0.00 41 1019.6
20260503190524 26 143 1.6 27.4 0.00 0.00 0.00 42 1019.7
20260503185525 26 87 3.2 8.0 0.00 0.00 0.00 42 1019.9
20260503185024 26 254 1.6 11.3 0.00 0.00 0.00 42 1020.0
20260503184024 25 159 3.2 12.9 0.00 0.00 0.00 43 1020.1
20260503183524 26 200 9.7 12.9 0.00 0.00 0.00 44 1020.2
20260503183024 26 196 4.8 12.9 0.00 0.00 0.00 44 1020.3
20260503182524 26 153 6.4 12.9 0.00 0.00 0.00 45 1020.5
20260503181024 25 103 9.7 12.9 0.00 0.00 0.00 45 1020.7
20260503180524 25 319 4.8 17.7 0.00 0.00 0.00 45 1020.8
20260503180024 25 130 6.4 17.7 0.00 0.00 0.00 45 1020.9
20260503175524 25 195 4.8 16.1 0.00 0.00 0.00 46 1021.0
20260503174523 25 327 6.4 9.7 0.00 0.00 0.00 47 1021.0
20260503174023 25 152 6.4 12.9 0.00 0.00 0.00 46 1021.2
20260503173523 25 149 6.4 12.9 0.00 0.00 0.00 47 1021.3
20260503173023 25 98 3.2 14.5 0.00 0.00 0.00 49 1021.3
20260503172523 25 186 4.8 14.5 0.00 0.00 0.00 49 1021.4
20260503172023 25 118 6.4 12.9 0.00 0.00 0.00 50 1021.4
20260503171523 25 217 3.2 14.5 0.00 0.00 0.00 50 1021.5
20260503171023 24 230 3.2 14.5 0.00 0.00 0.00 51 1021.6
20260503170523 24 128 11.3 14.5 0.00 0.00 0.00 50 1021.6
20260503131020 13 101 0.0 0.0 0.00 0.00 0.00 83 1021.4
20260503130520 13 101 0.0 0.0 0.00 0.00 0.00 83 1021.4
20260503110519 10 101 0.0 0.0 0.00 0.00 0.00 83 1020.7
20260503081518 11 101 0.0 0.0 0.00 0.00 0.00 82 1020.3
20260503081017 11 101 0.0 0.0 0.00 0.00 0.00 82 1020.3
20260503080518 11 101 0.0 0.0 0.00 0.00 0.00 82 1020.3
20260503072517 11 101 0.0 0.0 0.00 0.00 0.00 82 1020.6
20260503072018 11 101 0.0 0.0 0.00 0.00 0.00 81 1020.6
20260503071517 11 101 0.0 0.0 0.00 0.00 0.00 81 1020.6
20260503071017 11 101 0.0 0.0 0.00 0.00 0.00 81 1020.6
20260503070517 11 101 0.0 0.0 0.00 0.00 0.00 81 1020.6
20260503055016 12 101 0.0 0.0 0.00 0.00 0.00 79 1020.7
20260503054516 12 101 0.0 0.0 0.00 0.00 0.00 79 1020.8
20260503054017 12 101 0.0 0.0 0.00 0.00 0.00 79 1020.7
20260503053517 12 101 0.0 0.0 0.00 0.00 0.00 79 1020.7
20260503053016 12 101 0.0 0.0 0.00 0.00 0.00 79 1020.7
20260503052516 12 101 0.0 0.0 0.00 0.00 0.00 78 1020.7
20260503052016 12 101 0.0 0.0 0.00 0.00 0.00 78 1020.7
20260503051016 12 101 0.0 0.0 0.00 0.00 0.00 78 1020.7
20260503050516 12 101 0.0 0.0 0.00 0.00 0.00 78 1020.8
20260503050015 12 101 0.0 0.0 0.00 0.00 0.00 78 1020.8
20260503045515 12 101 0.0 0.0 0.00 0.00 0.00 77 1020.7
20260503044515 13 101 0.0 0.0 0.00 0.00 0.00 77 1020.7
20260503044015 13 101 0.0 0.0 0.00 0.00 0.00 77 1020.9
20260503043515 13 101 0.0 0.0 0.00 0.00 0.00 76 1020.7
20260503043016 13 101 0.0 0.0 0.00 0.00 0.00 76 1020.8
20260503042515 13 101 0.0 0.0 0.00 0.00 0.00 75 1020.7
20260503041515 13 101 0.0 0.0 0.00 0.00 0.00 75 1020.5
20260503041016 13 101 0.0 0.0 0.00 0.00 0.00 74 1020.4
20260503040516 13 101 0.0 0.0 0.00 0.00 0.00 74 1020.5
20260503040015 13 101 0.0 0.0 0.00 0.00 0.00 74 1020.5
20260503035515 13 101 0.0 0.0 0.00 0.00 0.00 73 1020.4
20260503034515 13 101 0.0 0.0 0.00 0.00 0.00 72 1020.3
20260503034015 14 101 0.0 0.0 0.00 0.00 0.00 72 1020.4